Torna al catalogo

SL-3 DEB

AttivoPO
NORAD 26848·DEBRIS·🇷🇺 Russia

Lanciato Dec 25, 1975 da Plesetsk Cosmodrome

Loading…

Prossimi Passaggi (prossime 24 ore)

TLE

AggiornatoSource: Space-Track

Epoca: Sep 14, 2026, 08:56 UTC

1 26848U 75124C   26257.37267390  .00000068  00000-0  31135-4 0  9997
2 26848  81.2762 127.7629 0013376  72.0247 288.2381 14.10147622371777

Traccia SL-3 DEB in tempo reale con AllMySat

Download on the App Store